ARIANE 5 R/B

Last updated on Sat Aug 15 2026 00:02:08 GMT+0000 (Coordinated Universal Time)

1 28499U 04049H 26226.46305654 .00000424 00000+0 53346-4 0 9994 2 28499 98.2769 40.9889 0083373 198.9102 160.9011 14.85513156169213
UTC large
Height (km)
Speed (km/s)
/
Latitude / Longitude
Inclination (degrees)
Orbital Period (minutes)
Azimuth
Elevation
Range (km)
Doppler Factor

Next 0 passes for location: London (51.5072 / 0.1276)

No passes found over London.
ARIANE 5 R/B